{"data":{"norad_id":52300,"intl_designator":"2022-041AR","name":"STARLINK-3769","alt_names":[],"object_type":"PAYLOAD","status":"ACTIVE","operator":null,"country":"US","launch_date":"2022-04-21","launch_site_code":"AFETR","launch_vehicle":null,"mission":null,"orbit_class":"UNKNOWN","rcs_meters":null,"size_class":null,"mass_kg":null,"dimensions":null,"purposes":["comms"],"wikipedia_slug":null,"has_3d_model":false,"image_url":null,"decayed_at":null,"tle_current":{"epoch":"2026-05-25T02:22:06.222432Z","epoch_age_seconds":62674,"freshness":"FRESH","line1":"1 52300U 22041AR  26145.09868313  .00002124  00000+0  15150-3 0  9998","line2":"2 52300  53.2124 116.1056 0001028  47.7477 312.3602 15.08840715227261","mean_motion":15.08840715,"eccentricity":0.0001028,"inclination_deg":53.2124,"raan_deg":116.1056,"arg_perigee_deg":47.7477,"mean_anomaly_deg":312.3602,"bstar":0.0001515,"rev_number":22726,"period_min":95.437509452414,"perigee_km":539.03004561669,"apogee_km":540.45236137533,"semimajor_km":6917.878203496,"source":"CELESTRAK","updated_at":"2026-05-25T13:38:17.107704Z"}}}